This demonstration page uses our WeatherBlox Daily Observations layout. Learn more.

Left ArrowRight Arrow

Hourly Observations for August 18, 2022

Temp ( °F °C ) Dew Point ( °F °C ) Humidity (%) Winds ( mph kmh ) Pressure ( in mb ) Visibility ( mi km ) Precip ( " mm )
12:53 am 00:53 Partly Cloudy with Smoke 89 31.7 45 7.2 22 22 NE 5 7 29.83 1010 10 16 0.00 0.00
1:53 am 01:53 Mostly Cloudy with Smoke 88 31.1 45 7.2 22 22 NE 6 9 29.83 1010 10 16 0.00 0.00
2:53 am 02:53 Clear with Smoke 86 30 46 7.8 25 25 WNW 6 9 29.84 1010 10 16 0.00 0.00
3:53 am 03:53 Clear with Smoke 85 29.4 48 8.9 28 28 S 9 15 29.84 1011 10 16 0.00 0.00
4:53 am 04:53 Mostly Cloudy with Smoke 83 28.3 54 12.2 37 37 Calm 29.84 1010 10 16 0.00 0.00
5:53 am 05:53 Clear with Smoke 84 28.9 51 10.6 32 32 NNW 5 7 29.84 1011 10 16 0.00 0.00
6:53 am 06:53 Mostly Cloudy 83 28.3 50 10 32 32 Calm 29.85 1011 10 16 0.00 0.00
7:53 am 07:53 Cloudy 82 27.8 55 12.8 40 40 Calm 29.85 1011 10 16 0.00 0.00
8:53 am 08:53 Sunny 83 28.3 62 16.7 49 49 Calm 29.87 1011 10 16 0.01 0.13
9:53 am 09:53 Sunny 91 32.8 58 14.4 33 33 Calm 29.86 1011 10 16 0.00 0.00
10:53 am 10:53 Sunny 95 35 54 12.2 25 25 N 13 20 29.86 1011 10 16 0.00 0.00
11:53 am 11:53 Sunny 100 37.8 52 11.1 20 20 N 13 20 29.85 1011 10 16 0.00 0.00
12:53 pm 12:53 Sunny 100 37.8 51 10.6 20 20 N 15 24 29.84 1011 10 16 0.00 0.00
1:53 pm 13:53 Sunny 103 39.4 51 10.6 18 18 NNE 13 20 29.82 1010 10 16 0.00 0.00
2:53 pm 14:53 Sunny 105 40.6 50 10 16 16 NNE 15 24 29.80 1009 10 16 0.00 0.00
3:53 pm 15:53 Sunny 105 40.6 48 8.9 15 15 NNE 9 15 29.78 1008 10 16 0.00 0.00
4:53 pm 16:53 Sunny 105 40.6 48 8.9 15 15 NNE 13 20 29.76 1008 10 16 0.00 0.00
5:53 pm 17:53 Sunny 105 40.6 48 8.9 15 15 N 8 13 29.75 1008 10 16 0.00 0.00
6:53 pm 18:53 Sunny 103 39.4 50 10 17 17 NE 9 15 29.75 1007 10 16 0.00 0.00
7:53 pm 19:53 Sunny 100 37.8 52 11.1 20 20 NNE 9 15 29.75 1008 10 16 0.00 0.00
8:53 pm 20:53 Clear 96 35.6 53 11.7 24 24 N 7 11 29.78 1008 10 16 0.00 0.00
9:53 pm 21:53 Clear 94 34.4 53 11.7 25 25 NNE 10 17 29.80 1009 10 16 0.00 0.00
10:53 pm 22:53 Clear 92 33.3 54 12.2 28 28 N 10 17 29.80 1009 10 16 0.00 0.00
11:53 pm 23:53 Clear 91 32.8 54 12.2 29 29 N 8 13 29.80 1009 10 16 0.00 0.00

Powered by AerisWeather